STARLINK-35321, 66074

Orbit data source: Space-Track

STARLINK-35321, 66074 is a payload satellite owned by SpaceX/Seattle (US) in LEO that was launched on Sun, 19 Oct 2025 UTC via an FALCON 9 launch vehicle from the Air Force Eastern Test Range (AFETR). Payload-class satellites include a variety of spacecraft equipped with specific instruments for various scientific and technological missions. These include communications satellites like Starlink; space stations such as the ISS; scientific satellites like the Hubble; Earth observation satellites from companies like Planet Labs, Umbra, and HawkEye 360; GPS; miniature CubeSats for education and research; and military/defense satellites.

Loading next visibility...
Identifier
66074, 2025-235S
Orbit
LEO
Country
Flag of USUS
Related business
Manufacturer
SpaceX/Seattle
Mission
Operational spacecraft
Bus & Motor
STARLINK V2MO, Unknown motor
Mass
575 kg wet, ~530 kg dry
Launch date (UTC)
2025-10-19 (2 weeks ago)
Launch vehicle
FALCON 9
Launch site
Air Force Eastern Test Range (AFETR)
Object type
Payload
Rocket body
Debris
Shape & HBR
Unknown
Radar Cross Section
RCS unknown

Expand to show TLE details & history
Last TLE update: 15 hours ago

TLE from 15 hours ago
0 STARLINK-35321
1 66074U 25235S   25306.50002315 -.00960471  00000-0 -71024-2 0  9997
2 66074  53.1513 120.1803 0001282  89.6971 145.5529 15.74948257  3412
Epoch: 2025-11-02T12:00Z
TLE epoch observation values (Epoch: 2025-11-02T12:00:02.000Z)
Latitude
-41.31958°
Longitude
119.08737°
Altitude
359.192 km
Speed
7.693 km/s
True Right ascension
22h 44m 26s
True Declination
-41° 08' 20"
Sunlit
Object was in daylight at epoch
Visualization orbit readout
Latitude
Unknown
Longitude
Unknown
Altitude
Unknown
Speed
Unknown
Apparent Right ascension
Unknown
Apparent Declination
Unknown
Sunlit
N/A
Visualization observer readout
Local Sidereal Time
22:58:02
Azimuth
Unknown
Elevation
Unknown
Doppler factor
Unknown
Orbital elements
Apogee altitude
345.903 km
Perigee altitude
344.179 km
Semi-major axis
6,723.178 km
Eccentricity
0.00013
Inclination
53.1513°
RAAN
120.1803°
Arg. of periapsis
89.6971°
True anomaly
145.56121°
Mean anomaly
145.5529°
Eccentric anomaly
145.55705°
Mean motion
3.93714 °/min
Orbital period
91.44 mins
BSTAR
-0.0071024
Loading maneuver chart data...
Computing Atmospheric mass density...
Loading historical data...
Loading historical data...
Loading historical data...
Loading historical data...
Loading historical data...
Loading historical data...
Loading historical data...

Documentation

Showing up to 5 results
|